Home > Weather > Mazari Sharif > Past weeks

Flag for Afghanistan Past Weather in Mazari Sharif, Afghanistan — Yesterday and Last 2 Weeks

Now
77 °F

Sunny.


Feels Like: 79 °F
Forecast: 77 / 112 °F
Wind: 1 mph from North

Location: Termez Airport

Current Time: Jul 25, 2016 at 7:04:50 AM

Latest Report: Jul 25, 2016 at 6:30 AM


Visibility: 10 mi

Pressure: 29.62 "Hg

Humidity: 54%

Dew Point: 59 °F

Location of Mazari SharifLocation

Past Weather in Mazari Sharif — Graph

°F

Mazari Sharif Temperature Yesterday

Maximum temperature yesterday: 108 °F (at 2:30 PM)
Minimum temperature yesterday: 70 °F (at 4:30 AM)
Average temperature yesterday: 91 °F

High & Low Weather Summary for the Past Weeks

 TemperatureHumidityPressure
High109 °F (Jul 11, 3:00 PM)69% (Jul 24, 4:30 AM)29.83 "Hg (Jul 24, 4:30 AM)
Low68 °F (Jul 20, 5:00 AM)7% (Jul 20, 1:30 PM)29.47 "Hg (Jul 11, 5:30 PM)
Average90 °F26%29.62 "Hg
* Reported Jul 10 5:30 AM — Jul 25 5:30 AM, Mazari Sharif, Weather by CustomWeather, © 2016

Note: Actual official high and low records may vary slightly from our data, if they occured in-between our weather recording intervals... More about our weather records

Advertising

Mazari Sharif Weather History for the Previous 24 Hours

Scroll right to see more
 ConditionsComfort  
Time TempWeatherWind HumidityBarometerVisibility
5:30 AM
Mon, Jul 25
73 °FSunny.3 mph47%29.59 "Hg10 mi
5:00 AM73 °FSunny.3 mph47%29.59 "Hg10 mi
4:30 AM75 °FClear.3 mph44%29.56 "Hg10 mi
4:00 AM75 °FClear.6 mph44%29.56 "Hg10 mi
3:30 AM73 °FClear.6 mph57%29.56 "Hg10 mi
3:00 AM73 °FClear.5 mph53%29.56 "Hg10 mi
2:30 AM77 °FClear.No wind44%29.56 "Hg10 mi
1:30 AM81 °FClear.6 mph34%29.53 "Hg10 mi
1:00 AM81 °FClear.6 mph45%29.53 "Hg10 mi
12:30 AM81 °FClear.2 mph48%29.53 "Hg10 mi
12:00 AM81 °FClear.3 mph51%29.53 "Hg10 mi
11:30 PM
Sun, Jul 24
81 °FClear.No wind45%29.56 "Hg10 mi
11:00 PM82 °FPassing clouds.3 mph42%29.53 "HgN/A
10:30 PM84 °FClear.1 mph43%29.53 "Hg10 mi
10:00 PM84 °FClear.2 mph37%29.53 "Hg10 mi
9:30 PM86 °FClear.No wind35%29.53 "Hg10 mi
9:00 PM88 °FClear.No wind33%29.53 "Hg10 mi
8:30 PM88 °FClear.No wind31%29.53 "Hg10 mi
7:30 PM90 °FClear.6 mph33%29.53 "Hg10 mi
7:00 PM95 °FSunny.7 mph25%29.50 "Hg10 mi
6:30 PM100 °FSunny.5 mph21%29.50 "Hg10 mi
6:00 PM100 °FSunny.6 mph21%29.50 "Hg10 mi
5:00 PM108 °FPassing clouds.3 mph8%29.53 "HgN/A
4:30 PM108 °FPassing clouds.5 mph9%29.53 "HgN/A
4:00 PM108 °FPassing clouds.5 mph9%29.53 "HgN/A
3:30 PM108 °FSunny.2 mph9%29.53 "Hg10 mi
3:00 PM108 °FSunny.3 mph9%29.56 "Hg10 mi
2:30 PM108 °FSunny.5 mph10%29.56 "Hg10 mi
2:00 PM106 °FPassing clouds.7 mph9%29.56 "HgN/A
1:30 PM106 °FPassing clouds.5 mph9%29.59 "HgN/A
1:00 PM104 °FSunny.3 mph11%29.59 "Hg10 mi
12:30 PM104 °FSunny.3 mph11%29.59 "Hg10 mi
12:00 PM104 °FSunny.2 mph11%29.62 "Hg10 mi
11:30 AM102 °FSunny.1 mph14%29.62 "Hg10 mi
11:00 AM99 °FSunny.2 mph14%29.62 "Hg10 mi
10:30 AM97 °FSunny.1 mph18%29.62 "Hg10 mi
10:00 AM95 °FSunny.1 mph20%29.62 "Hg10 mi
9:30 AM93 °FSunny.2 mph23%29.65 "Hg10 mi
9:00 AM90 °FSunny.2 mph27%29.65 "Hg10 mi
8:30 AM88 °FSunny.1 mph31%29.65 "Hg10 mi
8:00 AM84 °FSunny.No wind40%29.65 "Hg10 mi
7:30 AM82 °FSunny.No wind42%29.62 "Hg10 mi
7:00 AM77 °FSunny.No wind54%29.62 "Hg10 mi
Weather by CustomWeather, © 2016

See weather overviewHow to use our weather pages